Voltar ao catálogo

ATLAS CENTAUR R/B

AtivoGTO
NORAD 4882·ROCKET BODY·🇺🇸 United States

Lançado Jan 26, 1971 de Cape Canaveral Space Force Station

Loading…

TLE

ObsoletoSource: Space-Track

Época: Sep 14, 2026, 06:41 UTC

1 04882U 71006B   26257.27909648 -.00000054  00000-0  10612-2 0  9995
2 04882  27.4828 226.4059 7173812 105.5968 338.0007  2.20763350445165

Acompanhe ATLAS CENTAUR R/B em tempo real com AllMySat

Download on the App Store